Location: Clarion
(42.7316°N, 93.7330°W)
Time: 09:22:59
(UTC+00:00)

ASTEX 1 - Pass Details

Date: 22 April 2026
Orbit: 713 x 733 km, 92.7° (Epoch: 17 May)

Event Time Altitude Azimuth Distance (km) Brightness Sun altitude
Exits shadow 03:26:50 31° 204° (SSW) 1,246 4.4 -23.1°
Maximum altitude 03:28:57 55° 267° (W) 869 3.9 -23.4°
Drops below altitude 10° 03:33:48 10° 346° (NNW) 2,237 6.7 -24.0°
Sets 03:36:10 0° 350° (N) 3,165 7.6 -24.3°
